Voltar ao catálogo

NOAA 16 DEB

AtivoPO
NORAD 41078·DEBRIS·🇺🇸 United States

Lançado Sep 21, 2000 de Vandenberg Space Force Base

Loading…

Próximas Passagens (próximas 24 horas)

TLE

AtualizadoSource: Space-Track

Época: Sep 14, 2026, 13:33 UTC

1 41078U 00055AM  26257.56468985  .00000257  00000-0  30669-3 0  9994
2 41078  98.9391   5.8952 0289329 146.0296 215.9749 13.58517486534907

Acompanhe NOAA 16 DEB em tempo real com AllMySat

Download on the App Store